Flag for Hong Kong Weather past 2 weeks in Hong Kong, Hong Kong

Now
72 °F

Passing clouds.


Feels Like: 72 °F
Forecast: 62 / 71 °F
Wind: 6 mph from East

Location: National Airport

Current Time: Feb 28, 2015 at 10:25:04 PM

Latest Report: Feb 28, 2015 at 10:00 PM


Visibility: N/A

Pressure: 30.04 "Hg

Humidity: 78%

Dew point: 64 °F

Location of Hong KongLocation

Historic Weather in Hong Kong — Graph

°F

Hong Kong temperature yesterday

Maximum temperature yesterday: 73 °F (at 12:00 AM)
Minimum temperature yesterday: 68 °F (at 6:30 AM)
Average temperature yesterday: 70 °F

Past Weeks' High & Low Weather Summary

 TemperatureHumidityPressure
High82 °F (Feb 26, 1:30 PM)94% (Feb 17, 5:00 AM)30.15 "Hg (Feb 17, 5:00 AM)
Low63 °F (Feb 19, 11:30 PM)28% (Feb 13, 10:00 PM)29.86 "Hg (Feb 24, 3:00 PM)
Average69 °F78%29.99 "Hg
* Reported Feb 13 9:00 PM — Feb 28 9:00 PM, Hong Kong, Weather by CustomWeather, © 2015

Note: Actual official high and low records may vary slightly from our data, if they occured in-between our weather recording intervals... More about our weather records

Advertising

Hong Kong weather history for previous 24 hours

 ConditionsComfort  
Time TempWeatherWind HumidityBarometerVisibility
9:00 PM
Sat, Feb 28
70 °FPassing clouds.8 mph83%30.01 "HgN/A
8:30 PM70 °FPassing clouds.13 mph83%30.01 "HgN/A
8:00 PM70 °FPassing clouds.12 mph83%30.01 "HgN/A
7:30 PM70 °FPassing clouds.10 mph78%30.01 "HgN/A
7:00 PM68 °FPassing clouds.12 mph83%29.98 "HgN/A
6:30 PM70 °FPassing clouds.13 mph78%29.98 "HgN/A
6:00 PM70 °FPassing clouds.15 mph78%29.98 "HgN/A
5:30 PM70 °FPassing clouds.15 mph78%29.95 "HgN/A
5:00 PM70 °FPassing clouds.18 mph78%29.95 "HgN/A
4:30 PM70 °FScattered clouds.18 mph78%29.95 "HgN/A
4:00 PM70 °FScattered clouds.16 mph78%29.95 "HgN/A
3:30 PM70 °FScattered clouds.15 mph78%29.95 "HgN/A
3:00 PM70 °FScattered clouds.18 mph78%29.98 "HgN/A
2:30 PM72 °FScattered clouds.17 mph73%29.98 "HgN/A
2:00 PM72 °FPassing clouds.17 mph73%29.98 "HgN/A
1:30 PM72 °FScattered clouds.18 mph73%30.01 "HgN/A
1:00 PM70 °FPassing clouds.22 mph78%30.01 "HgN/A
12:30 PM70 °FPassing clouds.20 mph78%30.04 "HgN/A
12:00 PM70 °FPassing clouds.18 mph78%30.04 "HgN/A
11:30 AM70 °FPassing clouds.21 mph73%30.07 "HgN/A
11:00 AM70 °FPassing clouds.23 mph73%30.07 "HgN/A
10:30 AM70 °FPassing clouds.25 mph73%30.07 "HgN/A
10:00 AM68 °FPassing clouds.26 mph78%30.04 "HgN/A
9:30 AM68 °FPassing clouds.26 mph78%30.07 "HgN/A
9:00 AM66 °FScattered clouds.25 mph83%30.04 "HgN/A
8:30 AM66 °FScattered clouds.24 mph83%30.04 "HgN/A
8:00 AM66 °FScattered clouds.23 mph83%30.04 "HgN/A
7:30 AM66 °FScattered clouds.26 mph83%30.04 "HgN/A
7:00 AM66 °FPassing clouds.29 mph83%30.01 "HgN/A
6:30 AM66 °FPassing clouds.28 mph83%29.98 "HgN/A
6:00 AM66 °FPassing clouds.26 mph83%29.98 "HgN/A
5:30 AM66 °FPassing clouds.28 mph83%29.98 "HgN/A
5:00 AM66 °FPassing clouds.29 mph83%29.95 "HgN/A
4:30 AM66 °FPassing clouds.28 mph83%29.95 "HgN/A
4:00 AM66 °FPassing clouds.26 mph83%29.95 "HgN/A
3:30 AM66 °FPassing clouds.25 mph83%29.95 "HgN/A
3:00 AM66 °FPassing clouds.24 mph83%29.98 "Hg6 mi
2:30 AM66 °FPassing clouds.22 mph88%29.98 "HgN/A
2:00 AM66 °FPassing clouds.23 mph88%29.98 "HgN/A
1:30 AM66 °FPassing clouds.23 mph88%29.98 "HgN/A
1:00 AM66 °FPassing clouds.23 mph88%30.01 "HgN/A
12:30 AM68 °FPassing clouds.22 mph83%30.01 "HgN/A
12:00 AM68 °FPassing clouds.20 mph88%30.01 "Hg6 mi
11:30 PM
Fri, Feb 27
68 °FPassing clouds.15 mph88%30.01 "Hg5 mi
11:00 PM68 °FPassing clouds.13 mph88%30.01 "Hg5 mi
10:30 PM68 °FPassing clouds.9 mph88%30.01 "Hg5 mi
10:00 PM68 °FPassing clouds.12 mph88%30.01 "Hg5 mi
Weather by CustomWeather, © 2015

See weather overviewHow to use our weather pages